{"data":{"norad_id":87204,"epoch":"2026-05-24T01:40:19.585632Z","epoch_age_seconds":159389,"freshness":"FRESH","line1":"1 87204U          26144.06967113  .00001403  00000+0  55389-3 0  9991","line2":"2 87204  98.5242   6.6181 0043983 205.3589 154.5435 14.30086400648634","mean_motion":14.300864,"eccentricity":0.0043983,"inclination_deg":98.5242,"raan_deg":6.6181,"arg_perigee_deg":205.3589,"mean_anomaly_deg":154.5435,"bstar":0.00055389,"rev_number":64863,"period_min":100.69321685739,"perigee_km":759.90808085077,"apogee_km":822.97599983706,"semimajor_km":7169.5790403439,"source":"CELESTRAK","updated_at":"2026-05-25T13:38:11.663904Z"}}